CAPE
103 3 0 3 0 0 1 94 410 301 369 358 338 472 377 388 785 650 487 713 686 500 611 793 843 1157 1094 1803 1807 1795 1967 2261 1631 1483 1412 1361 1317 1492 1470 1045 1087 991 1256
163 48 31 10 0 13 65 62 292 394 343 349 436 271 445 478 370 410 653 694 771 844 919 984 987 1076 1161 1416 1870 1978 1935 1975 1890 1649 1524 1534 1518 1542 1699 1653 1331 1056 1347
299 287 223 44 1 4 101 182 144 295 251 191 371 215 355 443 213 412 426 525 710 632 889 834 1035 1085 1484 1356 1545 1758 1545 1654 1874 1953 1754 1597 1541 1639 1881 1940 1938 1711 1284
431 446 343 201 59 5 101 156 112 180 148 177 194 223 45 56 95 282 296 344 535 659 605 812 1059 841 1142 1261 1322 1551 1445 1225 1520 1842 1806 1918 1678 1658 1846 1816 1629 1525 1172
375 667 578 436 187 123 14 36 173 223 182 183 201 287 89 71 22 191 235 322 342 495 704 587 617 981 797 1098 1073 1143 1219 1250 1404 1801 1733 1638 1428 1511 1802 1678 1550 1396 1154
310 752 527 337 220 239 138 56 271 324 263 268 249 124 29 91 123 224 390 110 486 569 603 659 599 612 581 876 924 928 1031 990 1111 1128 1714 1779 1454 1285 1722 1765 1677 1530 1327
542 227 312 265 222 210 362 406 417 483 401 326 189 292 68 41 89 105 117 241 185 464 517 719 777 727 772 737 589 609 676 808 968 1314 1686 1582 1488 1265 1539 1751 1710 1451 1381
456 331 447 486 434 436 493 471 571 539 542 488 202 165 37 3 28 45 147 105 202 200 217 448 556 795 1059 929 844 764 612 615 728 871 1015 1298 1173 1417 1406 1431 1666 1502 1331
587 691 681 682 656 740 725 906 663 275 268 401 418 198 64 31 36 61 104 190 259 173 178 281 260 320 880 812 743 713 626 626 807 1013 1093 1166 1203 1179 1221 1512 1547 1584 1522
812 997 1054 1130 1133 1130 885 638 385 344 204 164 187 202 82 16 25 41 122 116 60 111 298 139 225 160 570 538 511 343 268 326 577 848 1342 1308 1294 1235 1314 1380 1456 1378 1392
557 605 1047 1424 1406 1261 788 576 697 517 188 115 205 263 137 58 62 178 24 47 38 35 123 194 62 81 27 87 291 397 150 231 450 541 513 800 1128 1418 1614 1467 1473 1253 1106
360 363 852 869 957 1074 931 879 641 665 336 244 309 345 218 188 134 172 139 47 21 106 404 189 79 99 61 81 141 77 94 124 294 131 134 394 576 662 746 1417 1670 1542 1107
224 197 236 880 1099 1318 933 1196 827 567 291 16 159 301 188 126 137 150 65 60 87 195 156 371 542 404 68 37 154 200 279 281 64 45 62 80 271 266 261 460 1186 1582 1242
57 303 760 890 1117 547 832 1067 1222 711 449 373 75 200 172 65 96 216 177 117 116 161 150 228 396 609 433 657 675 265 177 26 5 0 0 10 54 83 62 99 275 1059 1525
491 636 667 996 1157 1006 1018 988 603 507 296 224 147 14 345 269 201 295 219 493 523 147 97 65 84 174 169 41 0 4 5 0 0 0 0 0 1 30 33 36 41 498 1098
429 390 487 549 620 574 598 494 427 182 70 49 113 94 126 40 33 18 108 258 327 262 85 87 141 82 20 9 2 7 0 0 0 0 0 0 0 0 10 81 32 48 594
485 400 233 165 218 244 260 296 68 96 153 178 135 211 69 32 12 2 0 7 24 31 35 11 1 39 28 50 51 87 46 27 0 0 0 0 0 0 0 0 5 87 120
348 322 301 181 181 231 368 329 342 268 206 122 109 96 22 35 0 14 21 2 17 29 41 38 55 42 23 27 42 35 21 0 0 0 0 0 0 0 0 0 0 7 90
324 276 119 66 58 80 67 50 78 1 0 1 2 0 1 1 0 2 3 0 0 0 0 31 82 21 0 0 0 0 0 0 0 0 0 0 0 0 0 0 0 0 5
88 16 0 0 0 0 0 0 0 0 0 0 0 0 0 0 0 0 0 0 0 0 0 0 0 0 0 2 1 0 0 0 0 0 0 0 0 0 0 0 0 0 0
36 3 0 0 0 0 0 0 0 0 0 0 0 0 0 0 0 0 0 0 0 0 0 0 0 0 0 0 0 0 0 0 0 0 0 0 0 0 0 0 0 0 0
0 0 0 0 0 0 0 0 0 0 0 0 0 0 0 0 0 0 0 0 0 0 0 0 0 0 0 0 0 0 0 0 0 0 0 0 0 0 0 0 0 0 0
0 0 0 0 0 0 0 0 0 0 0 0 0 0 0 0 0 0 0 0 0 0 0 0 0 0 0 0 0 0 0 0 0 0 0 0 0 0 0 0 0 0 0
0 0 0 0 0 0 0 0 0 0 0 0 0 0 0 0 0 0 0 0 0 0 0 0 0 0 0 0 0 0 1 1 0 0 0 0 0 0 0 0 0 0 0
0 0 0 0 0 0 0 0 0 0 0 0 0 0 0 0 0 0 0 0 0 0 0 0 0 0 0 0 0 0 0 0 0 0 0 0 0 0 0 0 0 0 0
0 0 0 0 0 0 0 0 0 0 0 0 0 0 0 0 0 0 0 0 0 0 0 0 3 6 3 6 0 2 1 0 0 0 0 0 0 0 0 0 0 0 0
CIN
-64 -103 0 -58 0 0 -9 -29 -10 -17 -20 -18 -17 -19 -33 -36 -8 -1 -11 -36 -41 -51 -46 -27 -21 -11 -13 0 0 0 0 0 -7 -13 -9 -5 0 0 -1 -13 -12 -10 -2
-49 -59 -37 -48 0 -37 -13 -14 -10 -11 -9 -13 -13 -29 -30 -20 -27 -13 -2 -4 -45 -43 -34 -24 -18 -12 -13 -2 0 0 -1 -1 -1 -7 -16 -3 -2 -1 0 0 -9 -15 -5
-42 -30 -22 -41 -25 -30 -22 -7 -11 -10 -17 -19 -13 -39 -19 -9 -17 -6 -33 -8 -9 -52 -38 -36 -23 -20 -7 -4 -2 0 -2 -2 -3 -1 -5 -8 -3 -2 0 0 0 -2 -19
-46 -25 -17 -18 -27 -51 -15 -10 -9 -11 -7 -10 -10 -20 -53 -59 -49 -19 -27 -31 -8 -14 -43 -49 -39 -20 -20 -22 -21 -6 -3 -9 -4 -3 -3 -1 -4 -3 -2 -2 -3 -6 -27
-36 -21 -15 -21 -23 -26 -71 -44 -12 -7 -3 -10 -7 -12 -47 -54 -53 -27 -36 -30 -12 -35 -34 -58 -75 -42 -41 -28 -20 -15 -13 -16 -10 -3 -6 -4 -13 -7 -3 -7 -9 -13 -25
-41 -11 -31 -43 -29 -10 -45 -61 -11 -11 -6 -11 -9 -13 -41 -42 -29 -11 -17 -50 -6 -18 -40 -47 -48 -58 -65 -44 -19 -22 -25 -23 -20 -32 -16 -6 -15 -19 -5 -6 -7 -10 -19
-55 -54 -44 -61 -41 -30 -22 -17 -14 -8 -10 -13 -11 -16 -53 -51 -25 -38 -45 -55 -72 -38 -36 -13 -27 -29 -26 -57 -39 -31 -32 -29 -28 -22 -15 -29 -26 -32 -15 -4 -8 -13 -14
-68 -71 -46 -42 -51 -24 -15 -25 -19 -10 -8 -17 -11 -5 -5 -50 -71 -67 -60 -73 -77 -78 -70 -46 -43 -38 -29 -37 -28 -47 -31 -30 -30 -34 -34 -38 -53 -38 -35 -30 -7 -14 -31
-89 -63 -49 -37 -21 -5 -10 -1 -1 -43 -20 -13 -5 -2 -1 -5 -15 -59 -51 -56 -55 -46 -63 -73 -79 -68 -41 -50 -55 -60 -54 -34 -29 -29 -28 -27 -40 -54 -53 -33 -27 -21 -29
-66 -38 -23 -15 -15 -9 -14 -19 -38 -29 -48 -36 -24 -6 -12 -23 -12 -7 -28 -33 -87 -76 -32 -109 -78 -107 -42 -45 -44 -72 -92 -91 -73 -58 -26 -19 -25 -37 -40 -42 -42 -46 -46
-76 -60 -11 -4 -1 -6 -50 -52 -19 -36 -56 -54 -22 -3 -10 -1 -6 0 -30 -16 -61 -72 -53 -60 -124 -104 -152 -110 -39 -44 -105 -97 -73 -77 -95 -72 -47 -36 -27 -31 -39 -48 -61
-60 -69 -41 -46 -49 -39 -50 -40 -47 -12 -40 -38 -18 -9 -7 -8 -25 -9 -4 -27 -45 -33 -25 -67 -88 -62 -89 -80 -49 -104 -121 -118 -86 -154 -173 -121 -103 -84 -80 -43 -30 -35 -53
-67 -53 -90 -34 -35 -35 -34 -13 -18 -14 -18 -85 -26 -13 -29 -19 -15 -15 -24 -28 -18 -13 -28 -47 -21 -21 -66 -105 -52 -58 -57 -62 -113 -146 -158 -169 -127 -123 -123 -117 -53 -23 -34
-126 -69 -50 -37 -35 -26 -22 -14 -3 -5 -15 -22 -19 -12 -25 -66 -53 -18 -16 -13 -15 -13 -15 -16 -25 -20 -21 -2 -5 -55 -60 -137 -17 0 0 -172 -152 -143 -165 -158 -133 -63 -28
-30 -47 -44 -25 -18 -24 -12 -4 -7 -4 -10 -26 -27 -22 -10 -31 -34 -18 -31 -2 0 -19 -19 -29 -26 -49 -40 -94 0 -89 -173 0 0 0 0 0 -152 -135 -152 -173 -185 -123 -66
-69 -64 -45 -44 -30 -35 -19 -14 -8 -28 -100 -95 -33 -25 -40 -119 -91 -24 -55 -32 -22 -5 -26 -31 -7 -26 -48 -73 -28 -32 0 0 0 0 0 0 0 0 -81 -133 -180 -194 -120
-64 -88 -105 -103 -77 -63 -49 -35 -141 -72 -20 -18 -44 -7 -29 -65 -74 -49 0 -29 -96 -113 -80 -131 -67 -51 -53 -24 -8 -19 -36 -64 0 0 0 0 0 0 0 0 -22 -155 -167
-89 -78 -76 -123 -94 -60 -36 -29 -16 -23 -25 -35 -34 -27 -97 -58 -1 -28 -21 -39 -56 -95 -63 -62 -44 -64 -89 -61 -37 -31 -33 -2 -2 0 0 0 0 0 0 0 0 -137 -159
-54 -91 -254 -333 -293 -214 -197 -174 -106 -1 0 0 0 0 0 0 0 0 0 0 0 0 0 -47 -9 -56 0 0 0 0 0 0 0 0 0 0 0 0 0 0 0 0 -154
-191 -321 0 0 0 0 0 0 0 0 0 0 0 0 0 0 0 0 0 0 0 0 0 0 0 0 0 -1 -1 0 0 0 0 0 0 0 0 0 0 0 0 0 0
-202 -404 0 0 0 0 0 0 0 0 0 0 0 0 0 0 0 0 0 0 0 0 0 0 0 0 0 0 0 0 0 0 0 0 0 0 0 0 0 0 0 0 0
0 0 0 0 0 0 0 0 0 0 0 0 0 0 0 0 0 0 0 0 0 0 0 0 0 0 0 0 0 0 0 0 0 0 0 0 0 0 0 0 0 0 0
0 0 0 0 0 0 0 0 0 0 0 0 0 0 0 0 0 0 0 0 0 0 0 0 0 0 0 0 0 0 0 0 0 0 0 0 0 0 0 0 0 0 0
0 0 0 0 0 0 0 0 0 0 0 0 0 0 0 0 0 0 0 0 0 0 0 0 0 0 0 0 0 0 -1 -1 0 0 0 0 0 0 0 0 0 0 0
0 0 0 0 0 0 0 0 0 0 0 0 0 0 0 0 0 0 0 0 0 0 0 0 0 0 0 0 0 0 0 0 0 0 0 0 0 0 0 0 0 0 0
0 0 0 0 0 0 0 0 0 0 0 0 0 0 0 0 0 0 0 0 0 0 0 0 -1 -1 -2 -1 0 -1 -2 0 0 0 -1 0 0 0 0 0 0 0 0
Wind_Speed
14 11 16 17 16 15 16 18 17 15 15 16 14 13 17 15 16 16 9 6 11 12 13 13 15 15 13 12 5 10 25 14 7 13 17 15 18 12 14 21 19 21 23
16 16 15 14 14 15 16 16 15 13 10 9 9 7 11 17 17 15 11 7 8 14 15 14 15 13 15 15 8 13 29 20 15 11 16 16 16 16 21 25 23 24 23
17 18 17 15 15 16 13 11 10 8 5 2 3 3 4 28 29 14 14 6 4 10 17 14 12 10 12 17 22 17 28 24 21 15 11 16 18 19 25 27 26 25 23
17 15 15 16 15 15 11 7 7 10 8 6 6 3 8 21 23 14 10 12 9 5 2 12 11 14 17 20 19 23 30 24 22 17 22 21 22 25 27 28 27 27 25
16 18 13 14 13 14 9 9 10 3 8 8 8 9 12 10 15 14 11 12 14 11 12 9 6 12 16 16 14 19 23 26 25 27 29 26 24 27 29 30 29 29 28
20 17 8 11 11 12 9 6 7 1 3 6 3 2 5 5 5 20 13 14 13 12 8 12 7 6 15 17 15 14 17 27 26 28 29 28 27 28 31 31 31 30 29
10 11 10 14 11 9 7 4 2 2 1 2 11 11 6 5 10 11 13 13 16 10 7 7 1 6 2 14 18 18 21 28 25 25 28 29 30 31 33 33 33 32 31
17 22 18 18 12 9 7 1 4 9 11 15 14 15 17 17 21 9 4 2 10 5 3 8 2 9 25 19 4 8 24 26 27 24 24 29 30 31 35 35 35 34 33
2 19 18 14 11 3 2 6 11 10 13 22 16 16 17 10 21 10 13 11 7 7 3 7 6 4 23 26 20 21 26 30 29 29 27 28 31 32 35 36 36 35 35
28 27 22 17 10 3 1 5 6 5 2 9 19 15 18 20 15 16 16 14 14 7 7 7 3 7 12 25 23 18 24 27 28 29 30 31 33 34 35 36 36 36 36
24 26 28 23 16 13 15 8 11 7 3 7 9 15 14 10 22 8 15 14 17 13 10 9 1 6 22 23 18 24 23 28 28 29 29 30 31 33 36 37 38 38 36
25 25 13 15 15 9 9 7 1 3 2 2 3 6 6 12 12 12 12 18 16 17 13 10 9 6 3 14 6 23 25 24 27 27 30 34 34 34 34 36 39 40 37
14 20 21 14 5 2 7 1 3 2 2 4 6 6 8 5 17 15 8 13 18 14 13 11 10 12 11 9 14 17 22 22 22 28 30 33 36 34 35 34 37 41 38
17 19 19 14 5 5 15 10 6 11 10 6 7 6 7 3 2 7 15 13 13 14 13 12 13 11 11 11 11 13 17 22 23 25 28 29 32 36 36 36 36 37 40
6 21 22 19 19 19 18 16 16 15 16 17 14 15 16 15 7 6 10 14 14 12 13 14 13 13 12 12 13 14 16 19 23 25 27 28 30 34 36 37 37 36 40
14 17 19 19 19 19 18 18 17 17 19 19 21 20 19 18 15 13 9 9 12 16 14 17 15 15 17 18 17 19 21 25 25 27 29 31 31 31 34 37 37 37 38
16 17 18 19 19 19 19 19 19 20 21 21 20 21 19 18 17 16 15 12 11 13 10 20 21 19 20 21 22 24 26 27 26 27 30 33 34 34 34 36 37 36 36
17 17 18 19 19 20 20 20 20 21 22 22 21 21 24 22 20 19 17 17 18 21 16 22 26 23 25 27 29 31 30 31 31 31 32 35 35 35 34 34 36 35 33
17 18 19 20 20 20 20 20 20 20 21 21 21 21 22 22 22 22 22 22 23 22 24 30 31 26 28 30 31 29 32 34 35 34 34 33 34 34 32 33 32 34 35
17 18 19 19 19 20 20 20 20 20 20 21 21 21 22 22 22 22 22 22 23 25 28 29 30 31 32 30 31 33 35 34 37 35 36 36 32 31 32 32 32 32 32
18 18 18 18 18 19 20 20 20 20 20 21 21 21 21 21 22 23 24 25 26 27 28 30 31 31 34 33 36 36 38 38 37 36 35 32 32 32 32 31 31 30 31
19 18 18 18 19 20 20 20 20 20 20 21 21 20 20 23 24 25 27 27 28 31 32 33 34 36 36 36 36 38 39 39 40 31 31 33 34 37 36 34 32 32 34
19 19 19 19 18 19 19 19 18 19 19 20 21 22 22 24 26 29 31 32 32 33 32 35 38 38 39 36 37 39 39 39 40 37 38 41 36 39 36 37 35 36 38
20 20 19 19 18 17 17 17 18 19 20 21 21 22 24 26 29 32 34 36 37 37 37 37 38 38 36 35 35 37 40 41 41 39 35 43 36 37 36 37 38 41 42
20 19 18 19 19 18 18 16 17 18 20 21 22 23 26 29 31 34 36 37 37 37 35 36 38 40 39 37 36 37 38 40 42 39 33 37 37 39 37 37 36 35 36
19 18 18 17 19 19 21 18 17 19 21 23 24 26 27 30 34 36 38 40 41 40 40 40 40 39 37 36 34 34 37 39 39 40 33 32 34 32 33 28 29 29 29
Wind_Direction
185 169 208 219 212 200 199 198 193 182 189 197 194 193 202 198 199 199 178 173 181 188 187 186 189 191 181 175 173 167 200 167 138 157 171 164 178 155 164 270 281 257 248
200 201 202 198 201 200 200 196 187 182 180 178 184 179 199 207 205 201 185 182 188 195 191 189 188 184 180 181 187 182 206 184 172 160 171 174 174 173 193 232 250 238 250
208 213 214 203 205 208 193 181 182 180 182 178 190 2 343 256 250 208 194 190 319 191 195 188 190 183 181 187 196 191 207 196 188 177 167 175 180 183 207 227 229 241 249
213 207 206 207 204 207 186 154 163 192 199 201 205 309 341 225 227 203 194 197 191 317 273 190 186 185 186 191 193 196 209 199 193 186 191 188 193 203 216 224 221 242 252
212 215 199 203 197 202 181 183 191 154 202 212 219 218 323 205 212 207 198 198 200 194 305 315 178 175 180 184 186 190 200 204 198 201 205 199 199 208 216 228 223 239 248
221 207 190 195 189 196 183 173 186 134 185 202 222 276 203 216 216 218 205 203 193 187 187 303 311 173 188 190 184 183 190 204 201 202 201 203 203 208 219 226 232 240 247
202 193 192 201 190 190 187 174 29 38 25 11 353 346 324 300 210 209 205 198 197 183 171 168 258 213 319 180 188 189 196 204 199 197 200 203 207 212 223 229 229 238 244
224 232 212 210 194 191 186 144 14 355 349 345 345 344 335 330 306 200 312 257 189 311 195 178 178 305 274 293 302 182 202 208 210 198 195 205 206 209 224 230 233 236 242
148 222 213 202 198 184 191 356 345 346 345 332 336 342 342 357 296 356 332 327 323 303 243 300 191 270 280 270 291 288 267 230 225 220 209 204 210 214 227 233 233 234 237
290 278 230 210 192 174 244 180 179 169 154 4 340 336 326 320 319 324 335 330 322 347 327 315 303 309 299 277 281 292 278 266 258 243 250 232 225 229 232 237 236 237 239
307 297 290 240 213 207 212 198 204 185 66 24 17 356 339 1 283 353 336 332 312 330 340 347 3 326 285 284 291 276 286 272 268 263 265 266 264 255 242 238 238 239 248
299 307 206 211 207 191 198 198 154 179 139 124 90 35 48 338 326 323 333 316 318 315 337 354 355 31 45 300 160 272 276 285 275 279 269 263 262 260 260 253 243 238 252
201 249 231 210 162 59 11 107 183 151 89 34 29 35 20 21 323 317 344 328 308 327 340 350 342 339 348 328 302 293 282 285 288 281 281 270 259 263 262 264 258 244 252
223 237 241 215 196 18 360 14 38 9 10 29 33 33 25 14 27 335 318 321 322 316 327 332 333 336 335 332 333 328 309 284 288 294 290 286 271 262 261 262 263 259 252
149 341 337 348 346 348 353 360 360 360 356 352 357 354 352 351 355 339 325 310 309 317 315 316 325 326 329 330 330 335 319 306 293 292 296 293 287 273 266 264 263 263 254
30 13 2 359 2 0 2 1 0 357 349 342 337 338 344 347 350 348 356 337 314 303 314 303 315 314 307 310 316 317 309 299 297 294 295 293 289 286 275 267 267 266 261
42 31 23 19 15 15 11 6 0 352 346 343 340 337 340 341 337 335 329 334 326 316 326 295 298 308 307 307 308 308 305 304 302 300 296 294 286 281 280 274 270 268 266
45 42 34 27 21 14 8 5 3 358 353 349 343 337 334 334 330 327 322 318 314 304 312 293 288 299 300 300 304 299 301 300 300 303 300 293 285 283 282 282 275 270 270
44 33 26 20 17 13 10 6 4 1 357 353 348 344 339 338 336 332 324 317 308 314 302 287 287 297 300 299 304 304 303 298 296 298 298 299 293 287 284 282 282 272 269
34 25 20 16 13 10 6 4 1 358 354 352 349 345 341 338 337 336 336 328 323 315 304 297 299 294 295 299 304 303 300 300 296 297 296 292 295 292 288 284 282 278 274
22 18 15 12 8 4 1 359 355 352 350 348 346 343 342 341 338 334 327 324 321 316 313 309 302 301 295 301 297 300 298 300 297 296 298 294 291 291 289 286 283 281 275
15 13 9 6 5 4 3 2 0 359 356 354 351 349 346 339 333 328 324 321 319 313 309 307 303 298 300 301 301 299 298 296 294 302 301 297 291 287 286 285 283 280 277
10 8 6 5 6 6 8 8 6 3 359 354 350 345 340 337 332 326 321 317 314 311 310 305 300 300 298 301 300 297 295 295 292 295 295 290 291 286 287 284 282 279 275
4 4 4 8 9 10 12 9 4 359 354 350 347 344 339 334 330 325 320 315 311 309 307 305 301 301 302 302 301 298 295 293 293 293 293 286 291 289 288 284 282 277 274
4 9 12 10 8 7 5 4 360 356 352 348 345 341 336 331 329 325 320 316 313 311 311 309 305 300 298 298 298 298 295 293 290 292 293 289 289 288 290 287 283 281 278
12 12 11 10 6 5 1 2 360 353 346 342 341 337 334 331 327 324 319 315 311 309 309 307 306 303 301 299 298 295 294 291 291 290 295 289 290 291 290 292 290 287 283